This is the latest recevied weather packets stored in our database for station/object PY2UEP-1. If no packets are shown the sender has not sent any weather packets the latest 10 day(s).
| Time | Temp. | Humidity | Pressure | Rain* | Wind** | Luminosity | Snow |
|---|---|---|---|---|---|---|---|
| 1778250592 | 28.33° C | 49% | 1014.7 hPa | 0 mm | - | - | - |
| 1778250294 | 28.33° C | 50% | 1014.7 hPa | 0 mm | - | - | - |
| 1778249992 | 28.33° C | 52% | 1014.7 hPa | 0 mm | - | - | - |
| 1778249692 | 28.33° C | 51% | 1014.8 hPa | 0 mm | - | - | - |
| 1778249393 | 28.33° C | 51% | 1014.7 hPa | 0 mm | - | - | - |
| 1778249092 | 28.33° C | 50% | 1014.9 hPa | 0 mm | - | - | - |
| 1778248792 | 28.33° C | 51% | 1015.1 hPa | 0 mm | - | - | - |
| 1778248492 | 27.78° C | 51% | 1015.3 hPa | 0 mm | - | - | - |
| 1778248192 | 27.78° C | 52% | 1015.4 hPa | 0 mm | - | - | - |
| 1778247892 | 27.22° C | 53% | 1015.4 hPa | 0 mm | - | - | - |
| 1778247592 | 27.22° C | 54% | 1015.4 hPa | 0 mm | - | - | - |
| 1778247292 | 27.22° C | 54% | 1015.7 hPa | 0 mm | - | - | - |
| 1778246992 | 27.22° C | 55% | 1015.8 hPa | 0 mm | - | - | - |
| 1778246693 | 26.67° C | 56% | 1016 hPa | 0 mm | - | - | - |
| 1778246393 | 26.67° C | 56% | 1016 hPa | 0 mm | - | - | - |
| 1778246092 | 26.67° C | 57% | 1016.4 hPa | 0 mm | - | - | - |
| 1778245793 | 26.67° C | 58% | 1016.5 hPa | 0 mm | - | - | - |
| 1778245492 | 26.11° C | 58% | 1016.5 hPa | 0 mm | - | - | - |
| 1778245192 | 25.56° C | 60% | 1016.5 hPa | 0 mm | - | - | - |
| 1778244892 | 26.11° C | 60% | 1016.6 hPa | 0 mm | - | - | - |
| 1778244592 | 26.11° C | 61% | 1016.8 hPa | 0 mm | - | - | - |
| 1778244292 | 25.56° C | 62% | 1016.7 hPa | 0 mm | - | - | - |
| 1778243992 | 25° C | 63% | 1016.7 hPa | 0 mm | - | - | - |
| 1778243692 | 25° C | 64% | 1016.7 hPa | 0 mm | - | - | - |
| 1778243392 | 24.44° C | 65% | 1016.6 hPa | 0 mm | - | - | - |
* Rain since midnight (hover to see other rain measurements)
** Current wind speed in m/s (hover to see current wind gust speed)